"Pseudo-MPEC" for C911N62

Created 2023 Mar 26 6:22:06 UT using Find_Orb

Click here for an explanation of pseudo-MPECs

 
 Astrometry: 
     C911N62*1C2023 03 18.36962408 41 36.125+30 46 12.04   ~3IA7 22.03GVNEOCPG96
     C911N62 1C2023 03 18.37480808 41 35.790+30 46 13.94   ~3IA7 22.08GVNEOCPG96
     C911N62 1C2023 03 18.37998808 41 35.304+30 46 16.39   ~3IA7 20.81GVNEOCPG96
     C911N62 1C2023 03 18.38517908 41 34.840+30 46 16.75   ~3IA7 22.15GVNEOCPG96

Station data:
(G96) Mt. Lemmon Survey  (N32.442751 W110.788720)  US/Arizona.  Observers T.
   A. Pruyne, B. M. Africano, E. J. Christensen, G. A. Farneth, D. C. Fuls,
   A. R. Gibbs, A. D. Grauer, H. Gröller, J. A. Johnson, R. A. Kowalski, S.
   M. Larson, G. J. Leonard, D. Rankin, R. L. Seaman, F. C. Shelly, K. W.
   Wierzchoś. 1.5-m reflector + 10K CCD.

Orbital elements:  C911N62
   Perihelion 2023 Jun 29.92013 +/- 279 TT = 22:04:59 (JD 2460125.42013)
Epoch 2023 Mar 18.0 TT = JDT 2460021.5   Earth MOID: 0.0135      AutoNEOCP
M 264.34582442 +/- 100              (J2000 ecliptic)
n   0.92045858 +/- 0.569            Peri.  154.55796 +/- 44
a   1.04664615 +/- 0.431            Node   120.98967 +/- 24
e   0.0637731 +/- 0.201             Incl.    1.42146 +/- 59
P   1.07/391.10d           H 25.12  G  0.15   U 12.4  SR
q 0.97989822 +/- 0.995    Q 1.11339408 +/- 8.31
From 4 observations 2023 Mar. 18 (22.4 min); mean residual 0".50
Residuals in arcseconds: 
230318 G96  .57-  .25-    230318 G96  .12+  .77+    
230318 G96  .79+  .02-    230318 G96  .33-  .51-    

Ephemerides (geocentric):
Date (UTC) HH   RA             Dec           delta  r     elong  mag " sig PA
---- --------  ------------   ------------  ------ ------ -----  --- --------
2023 03 26 06  08 35 35.385   +31 38 34.91  .10255 1.0486 117.5 22.4 1599   1
2023 03 26 07  08 35 34.458   +31 38 45.69  .10257 1.0486 117.4 22.4 1610   2
2023 03 26 08  08 35 33.542   +31 38 56.43  .10259 1.0485 117.4 22.4 1621   2
2023 03 26 09  08 35 32.635   +31 39 07.12  .10261 1.0485 117.3 22.4 1632   2
2023 03 26 10  08 35 31.739   +31 39 17.75  .10263 1.0485 117.3 22.4 1643   2
2023 03 26 11  08 35 30.852   +31 39 28.33  .10265 1.0484 117.3 22.4 1654   2
2023 03 26 12  08 35 29.976   +31 39 38.86  .10267 1.0484 117.2 22.4 1666   2
2023 03 26 13  08 35 29.109   +31 39 49.33  .10269 1.0483 117.2 22.4 1677   2
2023 03 26 14  08 35 28.253   +31 39 59.76  .10271 1.0483 117.1 22.4 1688   2
2023 03 26 15  08 35 27.406   +31 40 10.13  .10273 1.0482 117.1 22.4 1699   2
2023 03 26 16  08 35 26.570   +31 40 20.45  .10275 1.0482 117.0 22.4 1710   2
2023 03 26 17  08 35 25.743   +31 40 30.72  .10277 1.0481 117.0 22.4 1721   2
2023 03 26 18  08 35 24.927   +31 40 40.94  .10279 1.0481 116.9 22.4 1733   2
2023 03 26 19  08 35 24.120   +31 40 51.10  .10281 1.0481 116.9 22.4 1744   2
2023 03 26 20  08 35 23.323   +31 41 01.22  .10283 1.0480 116.9 22.4 1755   3
2023 03 26 21  08 35 22.536   +31 41 11.28  .10285 1.0480 116.8 22.4 1767   3
2023 03 26 22  08 35 21.758   +31 41 21.29  .10287 1.0479 116.8 22.4 1778   3
2023 03 26 23  08 35 20.991   +31 41 31.26  .10289 1.0479 116.7 22.4 1789   3
2023 03 27 00  08 35 20.234   +31 41 41.17  .10290 1.0478 116.7 22.4 1801   3
2023 03 27 01  08 35 19.486   +31 41 51.03  .10292 1.0478 116.6 22.4 1812   3
2023 03 27 02  08 35 18.748   +31 42 00.84  .10294 1.0477 116.6 22.4 1824   3
2023 03 27 03  08 35 18.020   +31 42 10.60  .10296 1.0477 116.6 22.4 1835   3
2023 03 27 04  08 35 17.302   +31 42 20.31  .10298 1.0477 116.5 22.4 1846   3
2023 03 27 05  08 35 16.593   +31 42 29.97  .10300 1.0476 116.5 22.4 1858   3
2023 03 27 06  08 35 15.895   +31 42 39.58  .10302 1.0476 116.4 22.4 1870   3
2023 03 27 07  08 35 15.206   +31 42 49.14  .10304 1.0475 116.4 22.4 1881   3
2023 03 27 08  08 35 14.526   +31 42 58.65  .10306 1.0475 116.3 22.4 1893   3
2023 03 27 09  08 35 13.857   +31 43 08.11  .10308 1.0474 116.3 22.4 1904   3
2023 03 27 10  08 35 13.197   +31 43 17.51  .10310 1.0474 116.3 22.4 1916   4
2023 03 27 11  08 35 12.547   +31 43 26.88  .10312 1.0473 116.2 22.4 1928   4
2023 03 27 12  08 35 11.907   +31 43 36.19  .10314 1.0473 116.2 22.4 1939   4
2023 03 27 13  08 35 11.276   +31 43 45.45  .10316 1.0473 116.1 22.4 1951   4
2023 03 27 14  08 35 10.655   +31 43 54.66  .10318 1.0472 116.1 22.5 1963   4
2023 03 27 15  08 35 10.043   +31 44 03.82  .10320 1.0472 116.0 22.5 1974   4
2023 03 27 16  08 35 09.441   +31 44 12.94  .10321 1.0471 116.0 22.5 1986   4
2023 03 27 17  08 35 08.849   +31 44 22.00  .10323 1.0471 116.0 22.5 1998   4
2023 03 27 18  08 35 08.267   +31 44 31.02  .10325 1.0470 115.9 22.5 2010   4
2023 03 27 19  08 35 07.694   +31 44 39.99  .10327 1.0470 115.9 22.5 2022   4
2023 03 27 20  08 35 07.130   +31 44 48.90  .10329 1.0469 115.8 22.5 2033   4
2023 03 27 21  08 35 06.576   +31 44 57.77  .10331 1.0469 115.8 22.5 2045   4
2023 03 27 22  08 35 06.032   +31 45 06.60  .10333 1.0469 115.7 22.5 2057   4
2023 03 27 23  08 35 05.497   +31 45 15.37  .10335 1.0468 115.7 22.5 2069   4
2023 03 28 00  08 35 04.972   +31 45 24.10  .10337 1.0468 115.7 22.5 2081   4
2023 03 28 01  08 35 04.456   +31 45 32.77  .10339 1.0467 115.6 22.5 2093   4
2023 03 28 02  08 35 03.950   +31 45 41.40  .10341 1.0467 115.6 22.5 2105   4
2023 03 28 03  08 35 03.454   +31 45 49.98  .10342 1.0466 115.5 22.5 2117   5
2023 03 28 04  08 35 02.966   +31 45 58.52  .10344 1.0466 115.5 22.5 2129   5
2023 03 28 05  08 35 02.488   +31 46 07.00  .10346 1.0465 115.4 22.5 2141   5